New York Downtown Manhattan/w, NY

7:21 AM EST on November 22, 2019 (GMT -0500)
New York Downtown Manhattan/w

Weather History for KJRB - June, 2019

Change the Weather History Date:

Monday, June 3, 2019

  Actual Average (WUND) Record (WUND)
Temperature  
Mean Temperature 66 °F -  
Max Temperature 73 °F - - (-1)
Min Temperature 60 °F - - (-1)
Cooling Degree Days 2    
Growing Degree Days 16 (Base 50)    
Moisture  
Dew Point 43 °F    
Average Humidity 46    
Maximum Humidity 67    
Minimum Humidity 24    
Precipitation  
Precipitation 0.01 in - - ()
Sea Level Pressure  
Sea Level Pressure 29.91 in    
Wind  
Wind Speed 5 mph ()    
Max Wind Speed 14 mph    
Max Gust Speed 45 mph    
Visibility 10.0 miles    
Events      
Averages and records for this station are not official NWS values.
T = Trace of Precipitation, MM = Missing Value Source: Averaged Metar Reports

Daily Weather History Graph

Daily Weather History Graph

Search for Another Location

Airport or City:

Astronomy

Jun. 03, 2019 Rise Set
Actual Time 5:26 AM EDT 8:22 PM EDT
Civil Twilight 4:53 AM EDT 8:55 PM EDT
Nautical Twilight 4:12 AM EDT 9:36 PM EDT
Astronomical Twilight 3:24 AM EDT 10:24 PM EDT
Moon 5:45 AM EDT (6/3) 8:44 PM EDT (6/3)
Length of Visible Light 16h 01m
Length of Day
14h 55m
New Moon, 0% of the Moon is Illuminated
Jun 3
New Moon
Jun 10
First Quarter
Jun 17
Full
Jun 25
Last Quarter
Jul 2
New

Hourly Weather History & Observations

Time (EDT) Temp. Dew Point Humidity Pressure Visibility Wind Dir Wind Speed Gust Speed Precip Events Conditions
12:56 AM 64.0 °F 51.1 °F 63% 29.78 in 10.0 mi West 3.5 mph - N/A   Overcast
1:56 AM 63.0 °F 50.0 °F 63% 29.78 in 10.0 mi Variable 3.5 mph - N/A   Scattered Clouds
2:56 AM 62.1 °F 48.9 °F 62% 29.78 in 10.0 mi West 5.8 mph - N/A   Clear
3:56 AM 61.0 °F 48.9 °F 64% 29.80 in 10.0 mi West 3.5 mph - N/A   Scattered Clouds
4:56 AM 60.1 °F 48.0 °F 64% 29.82 in 10.0 mi Variable 3.5 mph - N/A   Clear
5:56 AM 60.1 °F 48.0 °F 64% 29.86 in 10.0 mi WSW 4.6 mph - N/A   Clear
6:56 AM 60.1 °F 48.9 °F 67% 29.88 in 10.0 mi WSW 8.1 mph - N/A   Clear
7:56 AM 61.0 °F 43.0 °F 52% 29.90 in 10.0 mi WSW 4.6 mph - N/A   Clear
8:56 AM 62.1 °F 45.0 °F 53% 29.91 in 10.0 mi West 9.2 mph 44.9 mph 0.01 in   Clear
9:56 AM 66.9 °F 46.9 °F 49% 29.89 in 10.0 mi WSW 9.2 mph - N/A   Clear
10:56 AM 68.0 °F 46.0 °F 45% 29.91 in 10.0 mi WSW 13.8 mph - N/A   Overcast
11:56 AM 68.0 °F 45.0 °F 43% 29.91 in 10.0 mi Variable 5.8 mph 44.9 mph N/A   Mostly Cloudy
12:56 PM 71.1 °F 45.0 °F 39% 29.91 in 10.0 mi WSW 12.7 mph 17.3 mph N/A   Mostly Cloudy
1:56 PM 72.0 °F 39.9 °F 31% 29.90 in 10.0 mi WSW 10.4 mph 19.6 mph N/A   Mostly Cloudy
2:56 PM 73.0 °F 37.9 °F 28% 29.90 in 10.0 mi Variable 4.6 mph 28.8 mph N/A   Clear
3:56 PM 73.9 °F 35.1 °F 24% 29.91 in 10.0 mi Variable 4.6 mph 20.7 mph N/A   Clear
4:56 PM 73.9 °F 35.1 °F 24% 29.91 in 10.0 mi Variable 5.8 mph 17.3 mph N/A   Clear
5:56 PM 72.0 °F 39.0 °F 30% 29.93 in 10.0 mi WSW 8.1 mph - N/A   Clear
6:56 PM 69.1 °F 37.9 °F 32% 29.96 in 10.0 mi Variable 3.5 mph - N/A   Clear
7:56 PM 66.9 °F 39.0 °F 36% 29.99 in 10.0 mi Calm Calm - N/A   Clear
8:56 PM 64.9 °F 39.9 °F 40% 30.01 in 10.0 mi West 3.5 mph - N/A   Clear
9:56 PM 64.0 °F 41.0 °F 43% 30.04 in 10.0 mi Variable 4.6 mph - N/A   Clear
10:56 PM 64.0 °F 41.0 °F 43% 30.05 in 10.0 mi Variable 3.5 mph - N/A   Clear
11:56 PM 63.0 °F 42.1 °F 46% 30.06 in 10.0 mi Variable 4.6 mph - N/A   Clear